#timestamp,LO_Frequency,Hit,StdDev 
1618652455.3,286046986.9,P
1618652475.1,286046988.1,P
1618652495.9,286046987.8,P
1618652515.7,286046987.8,Y
1618652535.5,286046998.8,P
1618652555.4,286046998.9,N
1618652575.2,286046996.6,N
1618652595.1,286046999.1,N
1618652596.0,286046999.1,N
1618652615.8,286046999.4,N
1618652635.6,286046997.7,N
1618652655.5,286046997.5,N
1618652675.3,286046997.8,N
1618652695.2,286046997.6,N
1618652715.9,286046997.2,N
1618652735.7,286046997.3,N
1618652755.6,286046997.5,N
1618652775.4,286046995.5,N
1618652795.2,286046993.3,N
1618652815.1,286046994.6,N
1618652816.0,286046994.6,N
1618652835.8,286046990.5,Y
1618652855.7,286046996.8,P
1618652875.5,286046997.0,P
1618652895.3,286046995.3,P
1618652915.2,286046995.1,Y
1618652935.0,286046998.2,P
1618652935.9,286046998.2,N
1618652955.7,286046999.9,N
1618652975.6,286046999.8,N
1618652995.4,286047000.8,N
1618653015.3,286046998.4,N
1618653035.1,286046996.6,N
1618653036.0,286046996.6,N
1618653055.8,286046997.2,N
1618653075.7,286046997.4,N
1618653095.5,286046998.0,N
1618653115.3,286046995.1,Y
1618653135.2,286046999.2,P
1618653155.0,286046999.2,N
1618653155.9,286046999.2,N
1618653175.8,286046996.6,Y
1618653195.6,286046999.6,P
1618653215.4,286046997.1,P
1618653235.3,286046997.0,N
1618653255.1,286046999.2,N
1618653275.8,286046997.0,N
1618653295.7,286046996.8,N
1618653315.5,286046997.5,N
1618653335.4,286046995.1,Y
1618653355.2,286046999.4,P
1618653375.0,286046997.8,N
1618653375.9,286046997.8,P
1618653395.8,286046996.3,Y
1618653415.6,286046995.0,P
1618653435.5,286046998.0,N
1618653455.3,286046996.7,N
1618653475.1,286046995.4,Y
1618653495.9,286047001.2,P
1618653515.7,286046999.3,N
1618653535.5,286046999.3,N
1618653555.4,286046999.6,N
1618653575.2,286046999.6,N
1618653595.1,286046997.3,N
1618653596.0,286046997.3,N
